Year,Month,Day,Hour,Minute,Value (Times are PST for temperature in C)
2019,03,20,03,33,11.20
2019,03,20,03,34,11.30
2019,03,20,03,35,11.30
2019,03,20,03,36,11.30
2019,03,20,03,37,11.30
2019,03,20,03,38,11.40
2019,03,20,03,39,11.40
2019,03,20,03,40,11.40
2019,03,20,03,41,11.30
2019,03,20,03,42,11.30
2019,03,20,03,43,11.30
2019,03,20,03,44,11.30
2019,03,20,03,45,11.30
2019,03,20,03,46,11.30
2019,03,20,03,47,11.40
2019,03,20,03,48,11.40
2019,03,20,03,49,11.40
2019,03,20,03,50,11.40
2019,03,20,03,51,11.50
2019,03,20,03,52,11.50
2019,03,20,03,53,11.50
2019,03,20,03,54,11.50
2019,03,20,03,55,11.50
2019,03,20,03,56,11.50
2019,03,20,03,57,11.50
2019,03,20,03,58,11.50
2019,03,20,03,59,11.50
2019,03,20,04,00,11.50
2019,03,20,04,01,11.60
2019,03,20,04,02,11.60
2019,03,20,04,03,11.60
2019,03,20,04,04,11.60
2019,03,20,04,05,11.60
2019,03,20,04,06,11.50
2019,03,20,04,07,11.50
2019,03,20,04,08,11.50
2019,03,20,04,09,11.50
2019,03,20,04,10,11.50
2019,03,20,04,11,11.50
2019,03,20,04,12,11.50
2019,03,20,04,13,11.50
2019,03,20,04,14,11.50
2019,03,20,04,15,11.40
2019,03,20,04,16,11.40
2019,03,20,04,17,11.40
2019,03,20,04,18,11.40
2019,03,20,04,19,11.40
2019,03,20,04,20,11.40
2019,03,20,04,21,11.40
2019,03,20,04,22,11.40
2019,03,20,04,23,11.40
2019,03,20,04,24,11.40
2019,03,20,04,25,11.40
2019,03,20,04,26,11.40
2019,03,20,04,27,11.30
2019,03,20,04,28,11.30
2019,03,20,04,29,11.30
2019,03,20,04,30,11.20
2019,03,20,04,31,11.20
2019,03,20,04,32,11.20
2019,03,20,04,33,11.20
2019,03,20,04,34,11.10
2019,03,20,04,35,11.10
2019,03,20,04,36,11.10
2019,03,20,04,37,11.20
2019,03,20,04,38,11.20
2019,03,20,04,39,11.20
2019,03,20,04,40,11.20
2019,03,20,04,41,11.20
2019,03,20,04,42,11.20
2019,03,20,04,43,11.20
2019,03,20,04,44,11.20
2019,03,20,04,45,11.20
2019,03,20,04,46,11.20
2019,03,20,04,47,11.20
2019,03,20,04,48,11.20
2019,03,20,04,49,11.20
2019,03,20,04,50,11.20
2019,03,20,04,51,11.30
2019,03,20,04,52,11.30
2019,03,20,04,53,11.30
2019,03,20,04,54,11.30
2019,03,20,04,55,11.30
2019,03,20,04,56,11.30
2019,03,20,04,57,11.30
2019,03,20,04,58,11.30
2019,03,20,04,59,11.30
2019,03,20,05,00,11.40
2019,03,20,05,01,11.40
2019,03,20,05,02,11.40
2019,03,20,05,03,11.40
2019,03,20,05,04,11.40
2019,03,20,05,05,11.50
2019,03,20,05,06,11.50
2019,03,20,05,07,11.60
2019,03,20,05,08,11.60
2019,03,20,05,09,11.60
2019,03,20,05,10,11.70
2019,03,20,05,11,11.70
2019,03,20,05,12,11.70
2019,03,20,05,13,11.70
2019,03,20,05,14,11.70
2019,03,20,05,15,11.70
2019,03,20,05,16,11.70
2019,03,20,05,17,11.70
2019,03,20,05,18,11.70
2019,03,20,05,19,11.80
2019,03,20,05,20,11.80
2019,03,20,05,21,11.80
2019,03,20,05,22,11.80
2019,03,20,05,23,11.80
2019,03,20,05,24,11.80
2019,03,20,05,25,11.80
2019,03,20,05,26,11.80
2019,03,20,05,27,11.80
2019,03,20,05,28,11.80
2019,03,20,05,29,11.80
2019,03,20,05,30,11.80
2019,03,20,05,31,11.80
2019,03,20,05,32,11.80
2019,03,20,05,33,11.90
2019,03,20,05,34,11.90
2019,03,20,05,35,11.90
2019,03,20,05,36,11.90
2019,03,20,05,37,11.90
2019,03,20,05,38,11.90
2019,03,20,05,39,11.90
2019,03,20,05,40,11.90
2019,03,20,05,41,12.00
2019,03,20,05,42,12.00
2019,03,20,05,43,12.00
2019,03,20,05,44,12.00
2019,03,20,05,45,12.00
2019,03,20,05,46,12.00
2019,03,20,05,47,12.00
2019,03,20,05,48,12.00
2019,03,20,05,49,11.90
2019,03,20,05,50,11.90
2019,03,20,05,51,12.00
2019,03,20,05,52,12.00
2019,03,20,05,53,12.00
2019,03,20,05,54,11.90
2019,03,20,05,55,12.00
2019,03,20,05,56,12.00
2019,03,20,05,57,12.00
2019,03,20,05,58,12.00
2019,03,20,05,59,12.00
2019,03,20,06,00,12.00
2019,03,20,06,01,12.00
2019,03,20,06,02,12.00
2019,03,20,06,03,12.00
2019,03,20,06,04,12.00
2019,03,20,06,05,11.90
2019,03,20,06,06,12.00
2019,03,20,06,07,12.00
2019,03,20,06,08,12.00
2019,03,20,06,09,12.00
2019,03,20,06,10,12.00
2019,03,20,06,11,12.00
2019,03,20,06,12,12.00
2019,03,20,06,13,12.00
2019,03,20,06,14,12.10
2019,03,20,06,15,12.10
2019,03,20,06,16,12.10
2019,03,20,06,17,12.10
2019,03,20,06,18,12.10
2019,03,20,06,19,12.10
2019,03,20,06,20,12.10
2019,03,20,06,21,12.10
2019,03,20,06,22,12.10
2019,03,20,06,23,12.10
2019,03,20,06,24,12.10
2019,03,20,06,25,12.10
2019,03,20,06,26,12.10
2019,03,20,06,27,12.10
2019,03,20,06,28,12.10
2019,03,20,06,29,12.10
2019,03,20,06,30,12.10
2019,03,20,06,31,12.00
2019,03,20,06,32,12.00
2019,03,20,06,33,11.90
2019,03,20,06,34,11.90
2019,03,20,06,35,11.90
2019,03,20,06,36,11.90
2019,03,20,06,37,11.80
2019,03,20,06,38,11.80
2019,03,20,06,39,11.80
2019,03,20,06,40,11.80
2019,03,20,06,41,11.70
2019,03,20,06,42,11.70
2019,03,20,06,43,11.70
2019,03,20,06,44,11.60
2019,03,20,06,45,11.50
2019,03,20,06,46,11.50
2019,03,20,06,47,11.40
2019,03,20,06,48,11.40
2019,03,20,06,49,11.30
2019,03,20,06,50,11.30
2019,03,20,06,51,11.30
2019,03,20,06,52,11.30
2019,03,20,06,53,11.30
2019,03,20,06,54,11.20
2019,03,20,06,55,11.20
2019,03,20,06,56,11.20
2019,03,20,06,57,11.20
2019,03,20,06,58,11.20
2019,03,20,06,59,11.20
2019,03,20,07,00,11.20
2019,03,20,07,01,11.10
2019,03,20,07,02,11.10
2019,03,20,07,03,11.10
2019,03,20,07,04,11.10
2019,03,20,07,05,11.10
2019,03,20,07,06,11.10
2019,03,20,07,07,11.10
2019,03,20,07,08,11.10
2019,03,20,07,09,11.20
2019,03,20,07,10,11.20
2019,03,20,07,11,11.20
2019,03,20,07,12,11.20
2019,03,20,07,13,11.20
2019,03,20,07,14,11.20
2019,03,20,07,15,11.20
2019,03,20,07,16,11.20
2019,03,20,07,17,11.30
2019,03,20,07,18,11.30
2019,03,20,07,19,11.30
2019,03,20,07,20,11.30
2019,03,20,07,21,11.30
2019,03,20,07,22,11.30
2019,03,20,07,23,11.40
2019,03,20,07,24,11.40
2019,03,20,07,25,11.40
2019,03,20,07,26,11.40
2019,03,20,07,27,11.40
2019,03,20,07,28,11.40
2019,03,20,07,29,11.40
2019,03,20,07,30,11.40
2019,03,20,07,31,11.50
2019,03,20,07,32,11.50
2019,03,20,07,33,11.50
2019,03,20,07,34,11.60
2019,03,20,07,35,11.60
2019,03,20,07,36,11.70
2019,03,20,07,37,11.70
2019,03,20,07,38,11.70
2019,03,20,07,39,11.70
2019,03,20,07,40,11.80
2019,03,20,07,41,11.80
2019,03,20,07,42,11.80
2019,03,20,07,43,11.80
2019,03,20,07,44,11.80
2019,03,20,07,45,11.90
2019,03,20,07,46,11.90
2019,03,20,07,47,11.90
2019,03,20,07,48,11.90
2019,03,20,07,49,11.90
2019,03,20,07,50,11.90
2019,03,20,07,51,11.90
2019,03,20,07,52,11.90
2019,03,20,07,53,11.90
2019,03,20,07,54,11.90
2019,03,20,07,55,11.90
2019,03,20,07,56,11.90
2019,03,20,07,57,11.90
2019,03,20,07,58,11.90
2019,03,20,07,59,11.80
2019,03,20,08,00,11.80
2019,03,20,08,01,11.80
2019,03,20,08,02,11.70
2019,03,20,08,03,11.70
2019,03,20,08,04,11.70
2019,03,20,08,05,11.70
2019,03,20,08,06,11.60
2019,03,20,08,07,11.60
2019,03,20,08,08,11.60
2019,03,20,08,09,11.60
2019,03,20,08,10,11.60
2019,03,20,08,11,11.60
2019,03,20,08,12,11.60
2019,03,20,08,13,11.70
2019,03,20,08,14,11.70
2019,03,20,08,15,11.70
2019,03,20,08,16,11.70
2019,03,20,08,17,11.70
2019,03,20,08,18,11.70
2019,03,20,08,19,11.70
2019,03,20,08,20,11.80
2019,03,20,08,21,11.80
2019,03,20,08,22,11.80
2019,03,20,08,23,11.80
2019,03,20,08,24,11.80
2019,03,20,08,25,11.90
2019,03,20,08,26,11.90
2019,03,20,08,27,11.90
2019,03,20,08,28,11.90
2019,03,20,08,29,11.90
2019,03,20,08,30,11.90
2019,03,20,08,31,11.80
2019,03,20,08,32,11.80
2019,03,20,08,33,11.80
2019,03,20,08,34,11.80
2019,03,20,08,35,11.80
2019,03,20,08,36,11.80
2019,03,20,08,37,11.70
2019,03,20,08,38,11.70
2019,03,20,08,39,11.70
2019,03,20,08,40,11.70
2019,03,20,08,41,11.70
2019,03,20,08,42,11.70
2019,03,20,08,43,11.70
2019,03,20,08,44,11.70
2019,03,20,08,45,11.70
2019,03,20,08,46,11.70
2019,03,20,08,47,11.80
2019,03,20,08,48,11.80
2019,03,20,08,49,11.80
2019,03,20,08,50,11.80
2019,03,20,08,51,11.90
2019,03,20,08,52,11.90
2019,03,20,08,53,11.90
2019,03,20,08,54,12.00
2019,03,20,08,55,12.00
2019,03,20,08,56,12.00
2019,03,20,08,57,12.10
2019,03,20,08,58,12.10
2019,03,20,08,59,12.10
2019,03,20,09,00,12.10
2019,03,20,09,01,12.10
2019,03,20,09,02,12.10
2019,03,20,09,03,12.10
2019,03,20,09,04,12.10
2019,03,20,09,05,12.10
2019,03,20,09,06,12.10
2019,03,20,09,07,12.10
2019,03,20,09,08,12.10
2019,03,20,09,09,12.20
2019,03,20,09,10,12.20
2019,03,20,09,11,12.20
2019,03,20,09,12,12.20
2019,03,20,09,13,12.20
2019,03,20,09,14,12.20
2019,03,20,09,15,12.20
2019,03,20,09,16,12.30
2019,03,20,09,17,12.30
2019,03,20,09,18,12.30
2019,03,20,09,19,12.30
2019,03,20,09,20,12.30
2019,03,20,09,21,12.30
2019,03,20,09,22,12.30
2019,03,20,09,23,12.30
2019,03,20,09,24,12.30
2019,03,20,09,25,12.30
2019,03,20,09,26,12.30
2019,03,20,09,27,12.40
2019,03,20,09,28,12.40
2019,03,20,09,29,12.40
2019,03,20,09,30,12.40
2019,03,20,09,31,12.40
2019,03,20,09,32,12.40
2019,03,20,09,33,12.50
2019,03,20,09,34,12.50
2019,03,20,09,35,12.60
2019,03,20,09,36,12.60
2019,03,20,09,37,12.60
2019,03,20,09,38,12.70
2019,03,20,09,39,12.70
2019,03,20,09,40,12.70
2019,03,20,09,41,12.70
2019,03,20,09,42,12.80
2019,03,20,09,43,12.80
2019,03,20,09,44,12.80
2019,03,20,09,45,12.80
2019,03,20,09,46,12.80
2019,03,20,09,47,12.80
2019,03,20,09,48,12.80
2019,03,20,09,49,12.80
2019,03,20,09,50,12.80
2019,03,20,09,51,12.80
2019,03,20,09,52,12.90
2019,03,20,09,53,12.90
2019,03,20,09,54,12.90
2019,03,20,09,55,12.90
2019,03,20,09,56,12.90
2019,03,20,09,57,12.90
2019,03,20,09,58,12.90
2019,03,20,09,59,12.90
2019,03,20,10,00,13.00
2019,03,20,10,01,13.00
2019,03,20,10,02,13.00
2019,03,20,10,03,13.10
2019,03,20,10,04,13.10
2019,03,20,10,05,13.10
2019,03,20,10,06,13.10
2019,03,20,10,07,13.20
2019,03,20,10,08,13.20
2019,03,20,10,09,13.20
2019,03,20,10,10,13.10
2019,03,20,10,11,13.10
2019,03,20,10,12,13.10
2019,03,20,10,13,13.10
2019,03,20,10,14,13.10
2019,03,20,10,15,13.10
2019,03,20,10,16,13.10
2019,03,20,10,17,13.10
2019,03,20,10,18,13.10
2019,03,20,10,19,13.10
2019,03,20,10,20,13.10
2019,03,20,10,21,13.10
2019,03,20,10,22,13.10
2019,03,20,10,23,13.20
2019,03,20,10,24,13.20
2019,03,20,10,25,13.20
2019,03,20,10,26,13.20
2019,03,20,10,27,13.20
2019,03,20,10,28,13.20
2019,03,20,10,29,13.10
2019,03,20,10,30,13.10
2019,03,20,10,31,13.10
2019,03,20,10,32,13.10
2019,03,20,10,33,13.10
2019,03,20,10,34,13.20
2019,03,20,10,35,13.20
2019,03,20,10,36,13.20
2019,03,20,10,37,13.20
2019,03,20,10,38,13.10
2019,03,20,10,39,13.10
2019,03,20,10,40,13.10
2019,03,20,10,41,13.10
2019,03,20,10,42,13.10
2019,03,20,10,43,13.10
2019,03,20,10,44,13.10
2019,03,20,10,45,13.10
2019,03,20,10,46,13.10
2019,03,20,10,47,13.10
2019,03,20,10,48,13.10
2019,03,20,10,49,13.20
2019,03,20,10,50,13.20
2019,03,20,10,51,13.30
2019,03,20,10,52,13.30
2019,03,20,10,53,13.30
2019,03,20,10,54,13.30
2019,03,20,10,55,13.40
2019,03,20,10,56,13.40
2019,03,20,10,57,13.40
2019,03,20,10,58,13.40
2019,03,20,10,59,13.40
2019,03,20,11,00,13.50
2019,03,20,11,01,13.60
2019,03,20,11,02,13.70
2019,03,20,11,03,13.70
2019,03,20,11,04,13.70
2019,03,20,11,05,13.80
2019,03,20,11,06,13.80
2019,03,20,11,07,13.90
2019,03,20,11,08,13.90
2019,03,20,11,09,13.90
2019,03,20,11,10,13.90
2019,03,20,11,11,14.00
2019,03,20,11,12,14.00
2019,03,20,11,13,14.10
2019,03,20,11,14,14.10
2019,03,20,11,15,14.10
2019,03,20,11,16,14.10
2019,03,20,11,17,14.20
2019,03,20,11,18,14.20
2019,03,20,11,19,14.10
2019,03,20,11,20,14.10
2019,03,20,11,21,14.20
2019,03,20,11,22,14.30
2019,03,20,11,23,14.30
2019,03,20,11,24,14.30
2019,03,20,11,25,14.30
2019,03,20,11,26,14.30
2019,03,20,11,27,14.30
2019,03,20,11,28,14.30
2019,03,20,11,29,14.40
2019,03,20,11,30,14.40
2019,03,20,11,31,14.40
2019,03,20,11,32,14.40
2019,03,20,11,33,14.40
2019,03,20,11,34,14.40
2019,03,20,11,35,14.40
2019,03,20,11,36,14.40
2019,03,20,11,37,14.40
2019,03,20,11,38,14.40
2019,03,20,11,39,14.40
2019,03,20,11,40,14.40
2019,03,20,11,41,14.40
2019,03,20,11,42,14.50
2019,03,20,11,43,14.50
2019,03,20,11,44,14.50
2019,03,20,11,45,14.50
2019,03,20,11,46,14.60
2019,03,20,11,47,14.60
2019,03,20,11,48,14.60
2019,03,20,11,49,14.60
2019,03,20,11,50,14.70
2019,03,20,11,51,14.60
2019,03,20,11,52,14.70
2019,03,20,11,53,14.70
2019,03,20,11,54,14.70
2019,03,20,11,55,14.70
2019,03,20,11,56,14.80
2019,03,20,11,57,14.80
2019,03,20,11,58,14.80
2019,03,20,11,59,14.80
2019,03,20,12,00,14.90
2019,03,20,12,01,14.90
2019,03,20,12,02,14.90
2019,03,20,12,03,14.90
2019,03,20,12,04,15.00
2019,03,20,12,05,15.10
2019,03,20,12,06,15.20
2019,03,20,12,07,15.30
2019,03,20,12,08,15.30
2019,03,20,12,09,15.40
2019,03,20,12,10,15.40
2019,03,20,12,11,15.50
2019,03,20,12,12,15.60
2019,03,20,12,13,15.60
2019,03,20,12,14,15.60
2019,03,20,12,15,15.60
2019,03,20,12,16,15.60
2019,03,20,12,17,15.60
2019,03,20,12,18,15.70
2019,03,20,12,19,15.70
2019,03,20,12,20,15.70
2019,03,20,12,21,15.80
2019,03,20,12,22,15.80
2019,03,20,12,23,15.80
2019,03,20,12,24,15.90
2019,03,20,12,25,15.90
2019,03,20,12,26,15.90
2019,03,20,12,27,15.90
2019,03,20,12,28,16.00
2019,03,20,12,29,16.00
2019,03,20,12,30,16.00
2019,03,20,12,31,16.00
2019,03,20,12,32,16.00
2019,03,20,12,33,16.00
2019,03,20,12,34,16.00
2019,03,20,12,35,16.00
2019,03,20,12,36,16.00
2019,03,20,12,37,16.00
2019,03,20,12,38,16.00
2019,03,20,12,39,16.10
2019,03,20,12,40,16.10
2019,03,20,12,41,16.10
2019,03,20,12,42,16.10
2019,03,20,12,43,16.20
2019,03,20,12,44,16.20
2019,03,20,12,45,16.20
2019,03,20,12,46,16.20
2019,03,20,12,47,16.20
2019,03,20,12,48,16.30
2019,03,20,12,49,16.30
2019,03,20,12,50,16.30
2019,03,20,12,51,16.30
2019,03,20,12,52,16.30
2019,03,20,12,53,16.20
2019,03,20,12,54,16.20
2019,03,20,12,55,16.20
2019,03,20,12,56,16.20
2019,03,20,12,57,16.30
2019,03,20,12,58,16.30
2019,03,20,12,59,16.30
2019,03,20,13,00,16.30
2019,03,20,13,01,16.30
2019,03,20,13,02,16.30
2019,03,20,13,03,16.30
2019,03,20,13,04,16.30
2019,03,20,13,05,16.40
2019,03,20,13,06,16.40
2019,03,20,13,07,16.30
2019,03,20,13,08,16.30
2019,03,20,13,09,16.30
2019,03,20,13,10,16.30
2019,03,20,13,11,16.30
2019,03,20,13,12,16.30
2019,03,20,13,13,16.40
2019,03,20,13,14,16.50
2019,03,20,13,15,16.60
2019,03,20,13,16,16.60
2019,03,20,13,17,16.60
2019,03,20,13,18,16.60
2019,03,20,13,19,16.60
2019,03,20,13,20,16.60
2019,03,20,13,21,16.60
2019,03,20,13,22,16.60
2019,03,20,13,23,16.70
2019,03,20,13,24,16.70
2019,03,20,13,25,16.70
2019,03,20,13,26,16.70
2019,03,20,13,27,16.70
2019,03,20,13,28,16.70
2019,03,20,13,29,16.70
2019,03,20,13,30,16.80
2019,03,20,13,31,16.80
2019,03,20,13,32,16.80
2019,03,20,13,33,16.80
2019,03,20,13,34,16.80
2019,03,20,13,35,16.80
2019,03,20,13,36,16.80
2019,03,20,13,37,16.80
2019,03,20,13,38,16.80
2019,03,20,13,39,16.80
2019,03,20,13,40,16.90
2019,03,20,13,41,17.00
2019,03,20,13,42,17.00
2019,03,20,13,43,17.00
2019,03,20,13,44,17.00
2019,03,20,13,45,17.00
2019,03,20,13,46,17.10
2019,03,20,13,47,17.10
2019,03,20,13,48,17.10
2019,03,20,13,49,17.10
2019,03,20,13,50,17.20
2019,03,20,13,51,17.20
2019,03,20,13,52,17.10
2019,03,20,13,53,17.00
2019,03,20,13,54,17.10
2019,03,20,13,55,17.10
2019,03,20,13,56,17.20
2019,03,20,13,57,17.20
2019,03,20,13,58,17.20
2019,03,20,13,59,17.30
2019,03,20,14,00,17.30
2019,03,20,14,01,17.30
2019,03,20,14,02,17.30
2019,03,20,14,03,17.30
2019,03,20,14,04,17.30
2019,03,20,14,05,17.30
2019,03,20,14,06,17.30
2019,03,20,14,07,17.30
2019,03,20,14,08,17.30
2019,03,20,14,09,17.20
2019,03,20,14,10,17.30
2019,03,20,14,11,17.30
2019,03,20,14,12,17.30
2019,03,20,14,13,17.40
2019,03,20,14,14,17.30
2019,03,20,14,15,17.30
2019,03,20,14,16,17.30
2019,03,20,14,17,17.40
2019,03,20,14,18,17.40
2019,03,20,14,19,17.50
2019,03,20,14,20,17.60
2019,03,20,14,21,17.60
2019,03,20,14,22,17.70
2019,03,20,14,23,17.70
2019,03,20,14,24,17.70
2019,03,20,14,25,17.70
2019,03,20,14,26,17.70
2019,03,20,14,27,17.80
2019,03,20,14,28,17.80
2019,03,20,14,29,17.80
2019,03,20,14,30,17.80
2019,03,20,14,31,17.90
2019,03,20,14,32,17.90
2019,03,20,14,33,17.90
2019,03,20,14,34,17.90
2019,03,20,14,35,17.90
2019,03,20,14,36,18.00
2019,03,20,14,37,18.00
2019,03,20,14,38,18.10
2019,03,20,14,39,18.20
2019,03,20,14,40,18.20
2019,03,20,14,41,18.20
2019,03,20,14,42,18.20
2019,03,20,14,43,18.10
2019,03,20,14,44,18.10
2019,03,20,14,45,18.20
2019,03,20,14,46,18.20
2019,03,20,14,47,18.20
2019,03,20,14,48,18.20
2019,03,20,14,49,18.30
2019,03,20,14,50,18.20
2019,03,20,14,51,18.20
2019,03,20,14,52,18.20
2019,03,20,14,53,18.20
2019,03,20,14,54,18.30
2019,03,20,14,55,18.20
2019,03,20,14,56,18.20
2019,03,20,14,57,18.20
2019,03,20,14,58,18.10
2019,03,20,14,59,18.10
2019,03,20,15,00,18.20
2019,03,20,15,01,18.20
2019,03,20,15,02,18.30
2019,03,20,15,03,18.40
2019,03,20,15,04,18.40
2019,03,20,15,05,18.50
2019,03,20,15,06,18.60
2019,03,20,15,07,18.60
2019,03,20,15,08,18.60
2019,03,20,15,09,18.70
2019,03,20,15,10,18.60
2019,03,20,15,11,18.60
2019,03,20,15,12,18.50
2019,03,20,15,13,18.40
2019,03,20,15,14,18.40
2019,03,20,15,15,18.40
2019,03,20,15,16,18.40
2019,03,20,15,17,18.40
2019,03,20,15,18,18.30
2019,03,20,15,19,18.30
2019,03,20,15,20,18.30
2019,03,20,15,21,18.20
2019,03,20,15,22,18.20
2019,03,20,15,23,18.20
2019,03,20,15,24,18.20
2019,03,20,15,25,18.20
2019,03,20,15,26,18.30
2019,03,20,15,27,18.30
2019,03,20,15,28,18.40
2019,03,20,15,29,18.40
2019,03,20,15,30,18.40
2019,03,20,15,31,18.40
2019,03,20,15,32,18.50
2019,03,20,15,33,18.50
2019,03,20,15,34,18.60
2019,03,20,15,35,18.70
2019,03,20,15,36,18.70
2019,03,20,15,37,18.80
2019,03,20,15,38,18.80
2019,03,20,15,39,18.80
2019,03,20,15,40,18.80
2019,03,20,15,41,18.80
2019,03,20,15,42,18.80
2019,03,20,15,43,18.90
2019,03,20,15,44,18.90
2019,03,20,15,45,19.00
2019,03,20,15,46,19.00
2019,03,20,15,47,19.10
2019,03,20,15,48,19.10
2019,03,20,15,49,19.10
2019,03,20,15,50,19.10
2019,03,20,15,51,19.00
2019,03,20,15,52,19.00
2019,03,20,15,53,19.00
2019,03,20,15,54,18.90
2019,03,20,15,55,18.90
2019,03,20,15,56,18.90
2019,03,20,15,57,18.90
2019,03,20,15,58,18.90
2019,03,20,15,59,18.90
2019,03,20,16,00,18.90
2019,03,20,16,01,18.90
2019,03,20,16,02,18.90
2019,03,20,16,03,18.90
2019,03,20,16,04,18.90
2019,03,20,16,05,18.90
2019,03,20,16,06,18.90
2019,03,20,16,07,18.80
2019,03,20,16,08,18.80
2019,03,20,16,09,18.80
2019,03,20,16,10,18.80
2019,03,20,16,11,18.80
2019,03,20,16,12,18.80
2019,03,20,16,13,18.80
2019,03,20,16,14,18.70
2019,03,20,16,15,18.70
2019,03,20,16,16,18.70
2019,03,20,16,17,18.60
2019,03,20,16,18,18.50
2019,03,20,16,19,18.40
2019,03,20,16,20,18.30
2019,03,20,16,21,18.20
2019,03,20,16,22,18.20
2019,03,20,16,23,18.10
2019,03,20,16,24,18.10
2019,03,20,16,25,18.10
2019,03,20,16,26,18.00
2019,03,20,16,27,17.90
2019,03,20,16,28,17.90
2019,03,20,16,29,17.80
2019,03,20,16,30,17.80
2019,03,20,16,31,17.80
2019,03,20,16,32,17.90
2019,03,20,16,33,17.90
2019,03,20,16,34,17.90
2019,03,20,16,35,17.80
2019,03,20,16,36,17.80
2019,03,20,16,37,17.80
2019,03,20,16,38,17.80
2019,03,20,16,39,17.70
2019,03,20,16,40,17.70
2019,03,20,16,41,17.70
2019,03,20,16,42,17.70
2019,03,20,16,43,17.70
2019,03,20,16,44,17.70
2019,03,20,16,45,17.70
2019,03,20,16,46,17.60
2019,03,20,16,47,17.50
2019,03,20,16,48,17.50
2019,03,20,16,49,17.40
2019,03,20,16,50,17.30
2019,03,20,16,51,17.20
2019,03,20,16,52,17.20
2019,03,20,16,53,17.20
2019,03,20,16,54,17.20
2019,03,20,16,55,17.30
2019,03,20,16,56,17.30
2019,03,20,16,57,17.40
2019,03,20,16,58,17.50
2019,03,20,16,59,17.50
2019,03,20,17,00,17.60
2019,03,20,17,01,17.60
2019,03,20,17,02,17.50
2019,03,20,17,03,17.40
2019,03,20,17,04,17.40
2019,03,20,17,05,17.30
2019,03,20,17,06,17.30
2019,03,20,17,07,17.20
2019,03,20,17,08,17.20
2019,03,20,17,09,17.20
2019,03,20,17,10,17.20
2019,03,20,17,11,17.20
2019,03,20,17,12,17.20
2019,03,20,17,13,17.10
2019,03,20,17,14,17.10
2019,03,20,17,15,17.00
2019,03,20,17,16,17.00
2019,03,20,17,17,17.00
2019,03,20,17,18,17.00
2019,03,20,17,19,17.10
2019,03,20,17,20,17.10
2019,03,20,17,21,17.10
2019,03,20,17,22,17.10
2019,03,20,17,23,17.00
2019,03,20,17,24,17.00
2019,03,20,17,25,16.90
2019,03,20,17,26,16.90
2019,03,20,17,27,16.80
2019,03,20,17,28,16.90
2019,03,20,17,29,16.90
2019,03,20,17,30,17.00
2019,03,20,17,31,17.10
2019,03,20,17,32,17.20
2019,03,20,17,33,17.30
2019,03,20,17,34,17.40
2019,03,20,17,35,17.40
2019,03,20,17,36,17.40
2019,03,20,17,37,17.50
2019,03,20,17,38,17.50
2019,03,20,17,39,17.60
2019,03,20,17,40,17.60
2019,03,20,17,41,17.70
2019,03,20,17,42,17.70
2019,03,20,17,43,17.80
2019,03,20,17,44,17.80
2019,03,20,17,45,17.80
2019,03,20,17,46,17.90
2019,03,20,17,47,17.90
2019,03,20,17,48,17.90
2019,03,20,17,49,18.00
2019,03,20,17,50,18.00
2019,03,20,17,51,18.10
2019,03,20,17,52,18.10
2019,03,20,17,53,18.20
2019,03,20,17,54,18.20
2019,03,20,17,55,18.30
2019,03,20,17,56,18.30
2019,03,20,17,57,18.40
2019,03,20,17,58,18.40
2019,03,20,17,59,18.40
2019,03,20,18,00,18.40
2019,03,20,18,01,18.40
2019,03,20,18,02,18.40
2019,03,20,18,03,18.40
2019,03,20,18,04,18.40
2019,03,20,18,05,18.40
2019,03,20,18,06,18.40
2019,03,20,18,07,18.40
2019,03,20,18,08,18.40
2019,03,20,18,09,18.50
2019,03,20,18,10,18.50
2019,03,20,18,11,18.40
2019,03,20,18,12,18.40
2019,03,20,18,13,18.50
2019,03,20,18,14,18.50
2019,03,20,18,15,18.50
2019,03,20,18,16,18.60
2019,03,20,18,17,18.60
2019,03,20,18,18,18.60
2019,03,20,18,19,18.60
2019,03,20,18,20,18.60
2019,03,20,18,21,18.60
2019,03,20,18,22,18.60
2019,03,20,18,23,18.60
2019,03,20,18,24,18.50
2019,03,20,18,25,18.50
2019,03,20,18,26,18.40
2019,03,20,18,27,18.40
2019,03,20,18,28,18.40
2019,03,20,18,29,18.40
2019,03,20,18,30,18.30
2019,03,20,18,31,18.30
2019,03,20,18,32,18.20
2019,03,20,18,33,18.20
2019,03,20,18,34,18.10
2019,03,20,18,35,18.00
2019,03,20,18,36,18.00
2019,03,20,18,37,18.00
2019,03,20,18,38,17.90
2019,03,20,18,39,17.90
2019,03,20,18,40,17.90
2019,03,20,18,41,17.90
2019,03,20,18,42,17.90
2019,03,20,18,43,17.90
2019,03,20,18,44,17.90
2019,03,20,18,45,17.90
2019,03,20,18,46,17.80
2019,03,20,18,47,17.80
2019,03,20,18,48,17.90
2019,03,20,18,49,17.90
2019,03,20,18,50,17.90
2019,03,20,18,51,17.90
2019,03,20,18,52,17.90
2019,03,20,18,53,17.90
2019,03,20,18,54,17.90
2019,03,20,18,55,17.90
2019,03,20,18,56,18.00
2019,03,20,18,57,18.00
2019,03,20,18,58,18.00
2019,03,20,18,59,18.10
2019,03,20,19,00,18.10
2019,03,20,19,01,18.10
2019,03,20,19,02,18.10
2019,03,20,19,03,18.10
2019,03,20,19,04,18.20
2019,03,20,19,05,18.10
2019,03,20,19,06,18.10
2019,03,20,19,07,18.10
2019,03,20,19,08,18.00
2019,03,20,19,09,18.10
2019,03,20,19,10,18.00
2019,03,20,19,11,17.90
2019,03,20,19,12,17.90
2019,03,20,19,13,17.80
2019,03,20,19,14,17.70
2019,03,20,19,15,17.60
2019,03,20,19,16,17.60
2019,03,20,19,17,17.50
2019,03,20,19,18,17.50
2019,03,20,19,19,17.40
2019,03,20,19,20,17.30
2019,03,20,19,21,17.30
2019,03,20,19,22,17.20
2019,03,20,19,23,17.10
2019,03,20,19,24,17.00
2019,03,20,19,25,16.90
2019,03,20,19,26,16.90
2019,03,20,19,27,16.80
2019,03,20,19,28,16.80
2019,03,20,19,29,16.70
2019,03,20,19,30,16.70
2019,03,20,19,31,16.60
2019,03,20,19,32,16.50
2019,03,20,19,33,16.40
2019,03,20,19,34,16.40
2019,03,20,19,35,16.30
2019,03,20,19,36,16.30
2019,03,20,19,37,16.20
2019,03,20,19,38,16.20
2019,03,20,19,39,16.10
2019,03,20,19,40,16.10
2019,03,20,19,41,16.10
2019,03,20,19,42,16.00
2019,03,20,19,43,16.00
2019,03,20,19,44,15.90
2019,03,20,19,45,15.90
2019,03,20,19,46,15.90
2019,03,20,19,47,15.80
2019,03,20,19,48,15.80
2019,03,20,19,49,15.80
2019,03,20,19,50,15.70
2019,03,20,19,51,15.70
2019,03,20,19,52,15.60
2019,03,20,19,53,15.60
2019,03,20,19,54,15.50
2019,03,20,19,55,15.50
2019,03,20,19,56,15.40
2019,03,20,19,57,15.30
2019,03,20,19,58,15.30
2019,03,20,19,59,15.20
2019,03,20,20,00,15.10
2019,03,20,20,01,15.00
2019,03,20,20,02,15.00
2019,03,20,20,03,14.90
2019,03,20,20,04,14.90
2019,03,20,20,05,14.80
2019,03,20,20,06,14.70
2019,03,20,20,07,14.70
2019,03,20,20,08,14.60
2019,03,20,20,09,14.60
2019,03,20,20,10,14.50
2019,03,20,20,11,14.50
2019,03,20,20,12,14.40
2019,03,20,20,13,14.30
2019,03,20,20,14,14.30
2019,03,20,20,15,14.20
2019,03,20,20,16,14.20
2019,03,20,20,17,14.10
2019,03,20,20,18,14.00
2019,03,20,20,19,14.00
2019,03,20,20,20,13.90
2019,03,20,20,21,13.90
2019,03,20,20,22,13.90
2019,03,20,20,23,13.90
2019,03,20,20,24,14.00
2019,03,20,20,25,14.10
2019,03,20,20,26,14.10
2019,03,20,20,27,14.20
2019,03,20,20,28,14.30
2019,03,20,20,29,14.30
2019,03,20,20,30,14.30
2019,03,20,20,31,14.40
2019,03,20,20,32,14.50
2019,03,20,20,33,14.50
2019,03,20,20,34,14.50
2019,03,20,20,35,14.60
2019,03,20,20,36,14.60
2019,03,20,20,37,14.60
2019,03,20,20,38,14.60
2019,03,20,20,39,14.70
2019,03,20,20,40,14.70
2019,03,20,20,41,14.70
2019,03,20,20,42,14.70
2019,03,20,20,43,14.70
2019,03,20,20,44,14.70
2019,03,20,20,45,14.70
2019,03,20,20,46,14.70
2019,03,20,20,47,14.70
2019,03,20,20,48,14.70
2019,03,20,20,49,14.70
2019,03,20,20,50,14.70
2019,03,20,20,51,14.70
2019,03,20,20,52,14.70